College Park, MD

8:27 PM EDT on May 26, 2017 (GMT -0400)
College Park

Weather History for KCGS - April, 2013

Change the Weather History Date:

Friday, April 5, 2013

  Actual Average Record
Temperature  
Mean Temperature 54 °F -  
Max Temperature 67 °F 61 °F 82 °F (1956)
Min Temperature 40 °F 42 °F 24 °F (1964)
Degree Days  
Heating Degree Days 12    
Growing Degree Days 4 (Base 50)    
Moisture  
Dew Point 33 °F    
Average Humidity 58    
Maximum Humidity 100    
Minimum Humidity 23    
Precipitation  
Precipitation 0.00 in - - ()
Sea Level Pressure  
Sea Level Pressure 29.94 in    
Wind  
Wind Speed 4 mph (NW)    
Max Wind Speed 16 mph    
Max Gust Speed 25 mph    
Visibility 9 miles    
Events      
Averages and records for this station are not official NWS values.
T = Trace of Precipitation, MM = Missing Value Source: NWS Daily Summary

Daily Weather History Graph

Daily Weather History Graph

Search for Another Location

Airport or City:

Trip Planner

Search our weather history database for the weather conditions in past years. The results will help you decide how hot, cold, wet, or windy it might be!

Date:

Astronomy

Apr. 05, 2013 Rise Set
Actual Time 6:45 AM EDT 7:35 PM EDT
Civil Twilight 6:18 AM EDT 8:02 PM EDT
Nautical Twilight 5:46 AM EDT 8:34 PM EDT
Astronomical Twilight 5:13 AM EDT 9:07 PM EDT
Moon 3:49 AM EDT (4/5) 2:59 PM EDT (4/5)
Length of Visible Light 13h 43m
Length of Day
12h 49m
Waning Crescent, 24% of the Moon is Illuminated
Apr 5
Waning Crescent
Apr 10
New
Apr 18
First Quarter
Apr 25
Full
May 2
Last Quarter

Hourly Weather History & Observations

Time (EDT) Temp. Windchill Dew Point Humidity Pressure Visibility Wind Dir Wind Speed Gust Speed Precip Events Conditions
12:05 AM 41.4 °F - 40.3 °F 96% 30.10 in 10.0 mi Calm Calm - N/A   Overcast
12:25 AM 41.4 °F 39.4 °F 40.5 °F 97% 30.09 in 7.0 mi SSE 3.5 mph - N/A   Overcast
12:40 AM 41.0 °F - 40.1 °F 97% 30.08 in 7.0 mi Calm Calm - N/A   Overcast
1:05 AM 40.6 °F - 40.3 °F 99% 30.06 in 7.0 mi Calm Calm - N/A   Overcast
1:25 AM 40.3 °F - 40.1 °F 99% 30.05 in 7.0 mi Calm Calm - N/A   Overcast
1:45 AM 40.3 °F - 40.3 °F 100% 30.04 in 7.0 mi Calm Calm - N/A   Overcast
2:05 AM 40.3 °F - 40.3 °F 100% 30.02 in 7.0 mi Calm Calm - N/A   Overcast
2:25 AM 40.1 °F - 40.1 °F 100% 30.01 in 7.0 mi Calm Calm - N/A   Overcast
2:45 AM 40.1 °F - 40.1 °F 100% 30.00 in 7.0 mi Calm Calm - N/A   Overcast
3:05 AM 40.1 °F - 40.1 °F 100% 29.99 in 7.0 mi Calm Calm - N/A   Overcast
3:25 AM 40.1 °F 38.0 °F 40.1 °F 100% 29.97 in 5.0 mi NE 3.5 mph - N/A   Overcast
3:45 AM 40.1 °F - 40.1 °F 100% 29.98 in 7.0 mi Calm Calm - N/A   Overcast
4:00 AM 40.1 °F - 40.1 °F 100% 29.98 in 7.0 mi Calm Calm - N/A   Overcast
4:25 AM 40.1 °F 38.0 °F 40.1 °F 100% 29.97 in 7.0 mi NE 3.5 mph - N/A   Overcast
4:45 AM 40.1 °F - 40.1 °F 100% 29.96 in 7.0 mi Calm Calm - N/A   Overcast
5:05 AM 40.1 °F - 40.1 °F 100% 29.95 in 7.0 mi Calm Calm - N/A   Overcast
5:25 AM 40.1 °F - 40.1 °F 100% 29.95 in 7.0 mi Calm Calm - N/A   Overcast
6:05 AM 40.1 °F - 40.1 °F 100% 29.95 in 10.0 mi Calm Calm - N/A   Overcast
6:45 AM 40.5 °F 38.4 °F 40.5 °F 100% 29.95 in 7.0 mi NNW 3.5 mph - N/A   Overcast
7:05 AM 40.8 °F - 40.5 °F 99% 29.94 in 7.0 mi Calm Calm - N/A   Overcast
7:25 AM 41.0 °F 38.0 °F 40.3 °F 97% 29.94 in 7.0 mi NNW 4.6 mph - N/A   Overcast
7:45 AM 41.2 °F - 40.6 °F 98% 29.94 in 7.0 mi Calm Calm - N/A   Mostly Cloudy
8:05 AM 41.5 °F 39.6 °F 40.5 °F 96% 29.94 in 7.0 mi North 3.5 mph - N/A   Scattered Clouds
8:45 AM 43.7 °F 40.3 °F 40.1 °F 87% 29.94 in 10.0 mi NNW 5.8 mph - N/A   Clear
9:05 AM 43.9 °F 41.3 °F 39.2 °F 84% 29.93 in 10.0 mi NW 4.6 mph - N/A   Clear
9:25 AM 45.5 °F 44.2 °F 40.1 °F 81% 29.92 in 10.0 mi NNW 3.5 mph - N/A   Clear
9:45 AM 46.4 °F - 39.7 °F 78% 29.93 in 10.0 mi Calm Calm - N/A   Clear
10:10 AM 49.3 °F - 40.6 °F 72% 29.92 in 10.0 mi Calm Calm - N/A   Clear
10:50 AM 53.6 °F - 35.2 °F 50% 29.92 in 10.0 mi NW 6.9 mph - N/A   Clear
11:10 AM 55.0 °F - 35.4 °F 48% 29.91 in 10.0 mi North 6.9 mph - N/A   Clear
11:30 AM 55.9 °F - 33.3 °F 42% 29.91 in 10.0 mi NNW 9.2 mph - N/A   Clear
11:50 AM 57.4 °F - 33.6 °F 41% 29.90 in 10.0 mi North 4.6 mph - N/A   Clear
12:10 PM 59.2 °F - 29.5 °F 32% 29.89 in 10.0 mi NNW 13.8 mph 24.2 mph N/A   Clear
12:50 PM 59.9 °F - 28.8 °F 31% 29.88 in 10.0 mi NNW 11.5 mph 20.7 mph N/A   Clear
1:10 PM 60.8 °F - 28.4 °F 29% 29.87 in 10.0 mi NNW 10.4 mph - N/A   Clear
1:30 PM 61.9 °F - 29.1 °F 29% 29.86 in 10.0 mi North 15.0 mph 18.4 mph N/A   Clear
1:50 PM 62.6 °F - 27.7 °F 27% 29.86 in 10.0 mi NNW 10.4 mph - N/A   Clear
2:10 PM 63.7 °F - 27.1 °F 25% 29.85 in 10.0 mi WNW 13.8 mph 18.4 mph N/A   Clear
2:30 PM 64.4 °F - 26.4 °F 24% 29.84 in 10.0 mi North 15.0 mph 20.7 mph N/A   Clear
2:50 PM 64.8 °F - 27.9 °F 25% 29.84 in 10.0 mi WNW 9.2 mph - N/A   Clear
3:10 PM 64.8 °F - 27.9 °F 25% 29.83 in 10.0 mi WNW 13.8 mph 20.7 mph N/A   Clear
3:50 PM 65.5 °F - 28.4 °F 25% 29.82 in 10.0 mi NW 9.2 mph - N/A   Clear
4:10 PM 66.4 °F - 28.8 °F 24% 29.82 in 10.0 mi NW 9.2 mph 20.7 mph N/A   Clear
4:30 PM 66.7 °F - 30.0 °F 25% 29.82 in 10.0 mi NW 10.4 mph 16.1 mph N/A   Clear
4:50 PM 67.3 °F - 29.1 °F 24% 29.82 in 10.0 mi WNW 16.1 mph 23.0 mph N/A   Clear
5:10 PM 67.1 °F - 28.0 °F 23% 29.83 in 10.0 mi NNW 10.4 mph 20.7 mph N/A   Clear
5:30 PM 67.1 °F - 28.2 °F 23% 29.84 in 10.0 mi WNW 15.0 mph 21.9 mph N/A   Clear
5:50 PM 66.7 °F - 28.6 °F 24% 29.84 in 10.0 mi WNW 11.5 mph 18.4 mph N/A   Clear
6:10 PM 66.2 °F - 28.8 °F 25% 29.85 in 10.0 mi NW 16.1 mph 20.7 mph N/A   Clear
6:30 PM 65.3 °F - 28.2 °F 25% 29.86 in 10.0 mi WNW 11.5 mph 25.3 mph N/A   Clear
6:50 PM 64.6 °F - 27.7 °F 25% 29.87 in 10.0 mi NW 12.7 mph 23.0 mph N/A   Clear
7:10 PM 63.5 °F - 28.6 °F 27% 29.89 in 10.0 mi NW 9.2 mph 17.3 mph N/A   Clear
7:30 PM 62.2 °F - 28.9 °F 28% 29.90 in 10.0 mi NNW 6.9 mph - N/A   Clear
7:50 PM 61.7 °F - 27.7 °F 28% 29.91 in 10.0 mi NNW 9.2 mph 16.1 mph N/A   Clear
8:10 PM 61.0 °F - 27.5 °F 28% 29.93 in 10.0 mi NW 8.1 mph 18.4 mph N/A   Clear
8:30 PM 60.1 °F - 27.1 °F 29% 29.94 in 10.0 mi NW 9.2 mph - N/A   Clear
8:50 PM 59.9 °F - 26.6 °F 28% 29.96 in 10.0 mi NW 8.1 mph - N/A   Clear
9:10 PM 59.2 °F - 26.2 °F 28% 29.97 in 10.0 mi NW 9.2 mph - N/A   Clear
9:45 PM 58.3 °F - 25.3 °F 28% 29.99 in 10.0 mi NW 9.2 mph - N/A   Clear
10:10 PM 57.4 °F - 24.1 °F 28% 30.01 in 10.0 mi NW 5.8 mph - N/A   Clear
10:30 PM 56.5 °F - 23.7 °F 28% 30.02 in 10.0 mi NW 9.2 mph - N/A   Clear
10:50 PM 55.8 °F - 23.4 °F 29% 30.02 in 10.0 mi NW 9.2 mph - N/A   Clear
11:10 PM 55.2 °F - 23.4 °F 29% 30.03 in 10.0 mi NNW 8.1 mph - N/A   Clear
11:30 PM 53.8 °F - 23.5 °F 31% 30.04 in 10.0 mi NNW 6.9 mph - N/A   Clear
11:50 PM 53.1 °F - 23.5 °F 32% 30.05 in 10.0 mi NNW 5.8 mph - N/A   Clear